格洛纳斯M-723 COSMOS 2436 [GLONASS-M]

导读

COSMOS 2436(编号716)隶属于独联体(CIS)俄罗斯GLONASS全球卫星导航系统,于2007年12月25日发射入轨,作为GLONASS-M系列新一代导航卫星,它采用三轴稳定体制,搭载精密铯钟作为频率基准,运行于高度约19100公里、倾角64.8°的中圆地球轨道,设计轨道寿命达7年,主要为全球提供军民两用导航定位服务,是GLONASS系统组网补网的重要组成部分。

基本信息
目录编号:
32395
目录名称:
COSMOS 2436 (GLONASS)
国际标识:
2007-065C
轨道中心:
EARTH
卫星名称:
格洛纳斯M-723
卫星全名:
格洛纳斯M-723 COSMOS 2436 [GLONASS-M]
卫星状态:
在轨 (已飞行6748 天)
发射日期:
2007-12-25 UTC
国别 :
俄罗斯(独联体) (CIS)
星等 :
--
轨道信息
数据来源 国际轨道数据 AOE轨道数据
星历时间 2026-06-13T14:12:49+0800
3天前
查看轨道信息
2026-06-10T06:00:00+0800
6天前
查看轨道信息
半长轴 25508.169km 25508.224km
偏心率 0.0017212 0.0017216
轨道倾角 64.326° 64.326°
近地点辐角 354.214° 354.381°
升交点赤经 192.120° 192.233°
平近点角 102.640° 58.442°
近地点 19086.127km 19086.172km
远地点 19173.937km 19174.002km
周期 675.738分钟 675.741分钟
每日圈数 2.131002 2.130995
详细信息
平衡模式:
三轴稳定
覆盖范围:
全球
运营商:
列舍特涅夫卫星信息系统
运营商所在国:
俄罗斯
制造商(研发单位):
列舍特涅夫卫星信息系统
制造商所在国:
俄罗斯
使用方式:
暂无
卫星简介
格洛纳斯(GLONASS )是苏联/俄罗斯研制卫星导航系统。标准配置为24颗卫星,其中18颗卫星就能保证该系统为俄罗斯境内用户提供全部服务。该卫星仍在工作。
2D轨道图
3D轨道图
轨道高度分析图
轨道倾角分析图
轨道综合分析图
查看轨道综合分析图